Date,TemperatureHighF,TemperatureAvgF,TemperatureLowF,DewpointHighF,DewpointAvgF,DewpointLowF,HumidityHigh,HumidityAvg,HumidityLow,PressureMaxIn,PressureMinIn,WindSpeedMaxMPH,WindSpeedAvgMPH,GustSpeedMaxMPH,PrecipitationSumIn
2013-1-1,39,36,25,28,22,9,70,57,47,29.84,29.61,21,9,0,0.00
2013-1-2,32,27,21,18,12,9,64,54,44,29.98,29.79,18,8,0,0.00
2013-1-3,34,27,16,18,15,10,80,61,44,30.05,29.85,15,6,0,0.00
2013-1-4,39,35,32,23,20,18,65,56,45,29.86,29.71,13,6,0,0.00
2013-1-5,45,37,34,25,20,18,60,51,39,30.05,29.80,20,7,0,0.00
2013-1-6,50,41,36,32,27,23,87,57,40,30.01,29.72,10,2,0,0.00
2013-1-7,46,41,36,30,24,19,70,53,37,30.18,29.82,17,5,0,0.00
2013-1-8,52,43,36,30,27,21,70,56,40,30.20,30.07,9,2,0,0.00
2013-1-9,48,43,34,37,32,27,87,66,57,30.17,29.89,12,2,0,0.00
2013-1-10,48,44,39,32,23,19,57,45,32,30.31,29.97,23,7,0,0.00
2013-1-11,45,39,36,43,31,23,100,74,56,30.31,29.87,10,3,0,0.00
2013-1-12,50,45,41,46,43,39,100,95,87,29.93,29.84,15,3,0,0.00
2013-1-13,50,47,43,48,45,43,100,93,87,29.91,29.75,12,3,0,0.00
2013-1-14,57,50,37,52,43,28,100,79,47,30.06,29.65,24,6,0,0.00
2013-1-15,39,36,34,34,27,23,93,69,56,30.11,29.99,16,5,0,0.00
2013-1-16,37,34,32,36,33,28,100,96,81,30.00,29.60,17,2,0,0.00
2013-1-17,45,39,34,34,27,23,87,63,49,29.85,29.67,15,6,0,0.00
2013-1-18,34,28,23,23,9,1,65,46,31,30.29,29.80,20,9,0,0.00
2013-1-19,52,39,30,28,20,9,65,48,33,30.20,29.67,20,8,0,0.00
2013-1-20,54,44,30,30,22,7,61,43,17,29.82,29.39,21,8,0,0.00
2013-1-21,34,30,27,19,12,7,69,47,35,29.91,29.64,14,4,0,0.00
2013-1-22,27,20,12,18,0,-11,69,44,28,30.07,29.65,22,11,0,0.00
2013-1-23,19,15,10,3,-4,-9,58,43,30,30.11,29.96,18,7,0,0.00
2013-1-24,23,16,10,7,0,-6,73,50,28,30.24,30.00,31,10,0,0.00
2013-1-25,27,19,12,19,6,-2,93,59,34,30.27,29.91,21,4,0,0.00
2013-1-26,28,20,16,16,9,1,86,63,34,30.21,29.91,20,7,0,0.00
2013-1-27,36,27,18,12,9,5,68,49,30,30.32,30.21,14,5,0,0.00
2013-1-28,37,33,28,34,24,10,93,72,44,30.31,29.81,13,3,0,0.00
2013-1-29,48,40,36,41,37,34,100,88,76,29.93,29.79,14,4,0,0.00
2013-1-30,55,48,37,54,47,37,100,94,88,29.89,29.16,21,8,0,0.00
2013-1-31,61,45,30,59,28,7,100,54,29,29.59,28.82,46,12,0,0.00
2013-2-1,32,28,23,14,9,1,59,45,32,30.05,29.59,31,9,0,0.00
2013-2-2,32,25,19,23,9,3,93,54,30,30.15,29.89,18,5,0,0.00
2013-2-3,32,27,21,23,19,16,93,74,55,29.89,29.59,10,3,0,0.00
2013-2-4,30,27,23,21,9,5,80,48,34,29.80,29.62,23,7,0,0.00
2013-2-5,32,29,27,28,21,10,93,74,47,29.79,29.71,12,3,0,0.00
2013-2-6,39,33,28,30,20,0,100,63,29,30.17,29.73,20,6,0,0.00
2013-2-7,34,28,23,23,8,0,69,43,29,30.33,30.15,14,4,0,0.00
2013-2-8,34,31,27,34,29,25,100,93,75,30.15,29.46,22,12,0,0.00
2013-2-9,34,27,21,28,16,1,100,68,31,30.18,29.56,25,13,0,0.00
2013-2-10,39,26,18,23,10,3,75,51,30,30.29,30.14,16,5,0,0.00
2013-2-11,46,39,30,43,36,23,100,89,70,30.14,29.46,10,3,0,0.00
2013-2-12,45,42,37,39,26,21,87,55,43,29.75,29.51,24,6,0,0.00
2013-2-13,46,38,32,34,24,19,100,58,39,29.75,29.49,13,3,0,0.00
2013-2-14,48,39,32,34,28,21,100,70,37,29.78,29.52,10,2,0,0.00
2013-2-15,57,46,39,37,32,28,76,60,36,29.79,29.66,14,3,0,0.00
2013-2-16,41,34,30,36,25,14,100,72,51,29.76,29.55,20,10,0,0.00
2013-2-17,30,25,16,14,4,-2,55,41,27,29.84,29.44,33,17,0,0.00
2013-2-18,36,25,16,12,4,0,58,41,26,30.03,29.84,24,9,0,0.00
2013-2-19,48,41,30,45,28,10,93,63,35,30.00,29.45,20,5,0,0.00
2013-2-20,39,30,25,25,13,7,60,48,37,29.81,29.50,38,10,0,0.00
2013-2-21,32,27,23,16,11,9,69,52,41,30.11,29.76,28,12,0,0.00
2013-2-22,37,32,25,28,21,14,75,65,48,30.22,30.06,21,7,0,0.00
2013-2-23,41,37,34,41,36,28,100,93,75,30.07,29.62,17,6,0,0.00
2013-2-24,46,38,34,37,32,21,100,79,53,29.76,29.51,22,9,0,0.00
2013-2-25,45,38,32,28,24,21,70,59,46,30.01,29.76,12,5,0,0.00
2013-2-26,43,38,32,34,30,25,93,73,56,30.07,29.72,22,6,0,0.00
2013-2-27,46,43,36,46,40,34,100,90,70,29.72,29.26,30,12,0,0.00
2013-2-28,50,47,41,39,35,28,76,64,54,29.40,29.31,12,3,0,0.00
2013-3-1,46,40,36,34,28,23,87,62,46,29.56,29.38,13,6,0,0.00
2013-3-2,39,36,30,30,24,21,93,63,49,29.57,29.46,17,8,0,0.00
2013-3-3,41,32,28,25,18,16,80,57,36,29.56,29.41,18,8,0,0.00
2013-3-4,39,33,27,19,18,14,69,56,42,29.70,29.51,23,12,0,0.00
2013-3-5,46,38,30,27,23,19,69,55,40,29.80,29.69,18,7,0,0.00
2013-3-6,45,40,37,36,30,27,81,69,57,29.76,29.63,36,13,0,0.00
2013-3-7,37,35,32,34,30,25,100,83,60,29.87,29.70,25,15,0,0.00
2013-3-8,41,34,30,34,31,27,100,89,61,29.96,29.79,28,10,0,0.00
2013-3-9,54,43,36,27,21,14,70,45,22,30.08,29.95,28,12,0,0.00
2013-3-10,54,41,32,36,32,19,93,72,42,30.16,30.04,16,4,0,0.00
2013-3-11,55,47,39,48,40,34,88,79,58,30.09,29.84,17,7,0,0.00
2013-3-12,57,52,45,54,48,36,94,87,71,29.84,29.41,33,14,0,0.00
2013-3-13,54,44,39,36,28,18,76,55,26,29.65,29.50,16,5,0,0.00
2013-3-14,39,34,28,27,10,0,61,40,20,29.75,29.59,30,13,0,0.00
2013-3-15,46,37,28,30,16,5,61,44,31,29.77,29.46,22,7,0,0.00
2013-3-16,41,35,32,32,25,18,100,69,42,29.70,29.54,16,4,0,0.00
2013-3-17,39,33,28,32,17,7,93,54,32,30.09,29.70,20,6,0,0.00
2013-3-18,34,30,27,32,15,5,100,56,34,30.24,29.84,21,8,0,0.00
2013-3-19,43,36,32,36,33,25,100,91,65,29.83,29.46,20,9,0,0.00
2013-3-20,45,38,32,23,18,12,60,46,29,29.67,29.53,20,7,0,0.00
2013-3-21,39,34,30,28,15,9,87,48,31,29.62,29.39,16,6,0,0.00
2013-3-22,41,35,28,21,15,12,60,45,36,29.66,29.52,17,7,0,0.00
2013-3-23,45,38,34,23,18,14,60,45,31,29.71,29.55,25,10,0,0.00
2013-3-24,46,40,34,23,20,18,56,46,34,29.72,29.46,21,5,0,0.00
2013-3-25,43,39,37,36,27,21,87,63,42,29.49,29.24,22,5,0,0.00
2013-3-26,50,43,39,30,27,23,65,55,40,29.62,29.35,9,5,0,0.00
2013-3-27,52,43,36,28,24,18,61,48,30,29.72,29.59,16,6,0,0.00
2013-3-28,50,44,37,32,29,27,70,57,43,29.85,29.71,18,9,0,0.00
2013-3-29,55,47,41,30,26,23,61,46,29,29.88,29.75,17,7,0,0.00
2013-3-30,61,49,41,32,25,16,65,43,19,29.91,29.76,12,4,0,0.00
2013-3-31,57,48,39,45,33,25,93,58,31,29.87,29.41,26,6,0,0.00
2013-4-1,66,50,37,45,37,10,100,65,29,29.65,29.29,23,6,0,0.00
2013-4-2,45,38,32,16,10,5,51,33,21,29.85,29.66,29,9,0,0.00
2013-4-3,46,38,32,14,10,5,44,32,20,30.06,29.81,22,10,0,0.00
2013-4-4,57,43,34,32,18,12,57,39,21,30.15,29.82,18,6,0,0.00
2013-4-5,61,52,43,32,22,16,61,35,19,29.82,29.41,17,8,0,0.00
2013-4-6,61,44,36,30,13,1,61,32,11,30.05,29.41,21,8,0,0.00
2013-4-7,54,48,41,45,33,21,72,57,32,30.05,29.70,30,10,0,0.00
2013-4-8,79,59,48,46,41,34,82,55,20,29.77,29.65,18,4,0,0.00
2013-4-9,81,68,52,50,41,30,88,46,16,29.70,29.54,20,5,0,0.00
2013-4-10,73,63,54,57,48,36,94,61,30,29.62,29.45,23,6,0,0.00
2013-4-11,61,55,46,59,48,37,100,77,52,29.73,29.44,17,7,0,0.00
2013-4-12,46,43,39,41,38,32,93,84,66,29.72,29.43,29,12,0,0.00
2013-4-13,61,50,41,41,35,28,93,60,31,29.64,29.46,17,4,0,0.00
2013-4-14,55,52,46,37,28,21,54,40,28,29.91,29.64,26,6,0,0.00
2013-4-15,61,50,43,39,27,23,71,42,31,30.06,29.90,18,5,0,0.00
2013-4-16,63,55,46,54,45,36,81,70,59,30.06,29.75,24,9,0,0.00
2013-4-17,70,62,54,57,40,30,94,50,24,29.93,29.75,18,6,0,0.00
2013-4-18,61,55,48,52,42,30,88,64,34,30.01,29.75,20,7,0,0.00
2013-4-19,73,63,55,63,58,52,100,83,64,29.75,29.27,26,11,0,0.00
2013-4-20,66,55,46,63,34,21,88,51,22,29.94,29.28,18,7,0,0.00
2013-4-21,52,44,37,30,20,16,53,40,24,30.28,29.94,25,9,0,0.00
2013-4-22,54,47,39,36,30,19,75,55,28,30.35,30.16,23,9,0,0.00
2013-4-23,54,44,39,43,36,28,93,72,62,30.19,29.80,21,8,0,0.00
2013-4-24,73,55,43,50,43,37,88,66,35,29.81,29.48,20,7,0,0.00
2013-4-25,66,56,46,52,28,14,88,39,14,29.92,29.52,21,7,0,0.00
2013-4-26,66,57,46,39,31,21,76,40,19,30.06,29.92,16,5,0,0.00
2013-4-27,70,56,48,36,25,5,51,33,10,30.09,29.88,17,8,0,0.00
2013-4-28,72,58,46,43,36,23,76,47,21,29.97,29.83,18,5,0,0.00
2013-4-29,59,56,54,50,46,41,82,69,55,29.89,29.83,16,5,0,0.00
2013-4-30,68,58,52,46,36,21,77,48,18,29.98,29.86,14,4,0,0.00
2013-5-1,70,58,46,45,34,23,67,42,23,30.13,29.98,17,4,0,0.00
2013-5-2,77,62,48,48,40,28,94,50,18,30.13,29.91,14,2,0,0.00
2013-5-3,66,58,50,45,38,32,82,50,30,30.10,29.95,15,6,0,0.00
2013-5-4,72,57,48,46,42,36,87,59,31,30.03,29.83,17,6,0,0.00
2013-5-5,64,53,45,45,39,34,81,61,34,29.98,29.83,16,5,0,0.00
2013-5-6,72,57,45,52,46,41,93,70,43,29.93,29.76,15,3,0,0.00
2013-6-24,100,90,77,68,63,57,65,42,25,29.36,29.23,10,2,0,0.00
2013-6-25,99,85,75,68,65,63,73,51,32,29.36,29.10,12,1,0,0.00
2013-6-26,90,83,77,72,66,63,83,57,40,29.17,29.09,15,3,0,0.00
2013-6-27,88,78,72,73,70,66,94,75,49,29.18,28.91,21,5,0,0.00
2013-6-28,91,82,75,72,67,61,89,63,36,28.92,28.76,15,3,0,0.00
2013-6-29,91,80,73,70,66,61,83,63,36,29.05,28.84,17,3,0,0.00
2013-6-30,86,78,72,73,71,68,89,79,62,29.26,29.05,17,4,0,0.00
2013-7-1,79,76,72,75,72,70,100,88,78,29.40,29.24,13,3,0,0.00
2013-7-2,88,79,72,73,71,70,94,77,58,29.51,29.39,15,4,0,0.00
2013-7-3,91,82,77,75,71,68,79,70,49,29.57,29.45,15,2,0,0.00
2013-7-4,95,86,79,75,71,66,84,62,41,29.55,29.38,7,1,0,0.00
2013-7-5,99,88,79,72,69,64,78,56,34,29.51,29.30,13,2,0,0.00
2013-7-6,100,89,81,73,70,64,74,55,33,29.41,29.23,12,2,0,0.00
2013-7-7,100,90,77,73,70,64,74,53,33,29.31,29.10,18,2,0,0.00
2013-7-8,95,84,75,70,66,61,78,57,32,29.29,29.15,15,2,0,0.00
2013-7-9,95,85,77,72,67,61,70,57,34,29.33,29.18,8,1,0,0.00
2013-7-10,91,85,77,75,70,66,83,62,46,29.27,29.01,12,2,0,0.00
2013-7-11,90,82,77,75,69,61,89,65,46,29.20,29.05,8,2,0,0.00
2013-7-12,81,74,68,70,64,59,94,72,57,29.44,29.20,13,4,0,0.00
2013-7-13,84,73,66,73,70,63,100,88,70,29.58,29.44,16,4,0,0.00
2013-7-14,99,85,75,75,70,66,94,65,35,29.62,29.44,10,2,0,0.00
2013-7-15,97,88,82,75,70,68,70,56,41,29.50,29.32,10,3,0,0.00
2013-7-16,95,87,77,75,67,61,89,55,34,29.44,29.31,14,5,0,0.00
2013-7-17,99,88,79,73,67,61,79,51,30,29.43,29.23,12,4,0,0.00
2013-7-18,100,92,84,73,69,64,66,49,31,29.28,29.10,9,2,0,0.00
2013-7-19,104,94,86,73,71,66,66,48,31,29.15,28.91,9,2,0,0.00
2013-7-20,99,89,82,75,68,61,66,52,37,29.04,28.86,16,3,0,0.00
2013-7-21,90,82,75,72,62,54,74,53,31,29.18,29.03,10,2,0,0.00
2013-7-22,86,78,73,75,71,68,94,82,62,29.21,29.07,12,2,0,0.00
2013-7-23,95,82,75,75,71,66,94,73,41,29.07,28.75,14,2,0,0.00
2013-7-24,86,79,66,73,64,50,83,61,42,29.23,28.89,24,6,0,0.00
2013-7-25,68,65,63,59,53,48,73,65,56,29.41,29.24,18,6,0,0.00
2013-7-26,88,74,64,64,59,55,83,61,35,29.41,29.27,17,6,0,0.00
2013-7-27,90,79,72,66,61,54,78,57,33,29.42,29.25,16,3,0,0.00
2013-7-28,81,75,70,72,67,63,94,77,57,29.34,29.24,16,4,0,0.00
2013-7-29,91,80,72,72,62,45,89,58,23,29.44,29.27,9,3,0,0.00
2013-7-30,82,75,66,59,55,50,73,52,32,29.53,29.40,12,4,0,0.00
2013-7-31,86,77,68,61,57,52,68,51,33,29.54,29.35,10,3,0,0.00
2013-8-1,81,73,68,70,65,59,94,77,51,29.39,29.21,13,2,0,0.00
2013-8-2,88,78,70,68,61,54,88,59,31,29.26,29.16,12,3,0,0.00
2013-8-3,84,75,70,66,61,55,78,62,48,29.30,29.16,12,2,0,0.00
2013-8-4,82,74,68,64,55,48,78,52,32,29.36,29.18,18,6,0,0.00
2013-8-5,81,70,61,54,47,41,72,46,26,29.48,29.34,16,5,0,0.00
2013-8-6,84,73,63,61,54,48,88,54,29,29.53,29.42,14,3,0,0.00
2013-8-7,81,74,68,68,62,57,78,66,48,29.54,29.44,22,6,0,0.00
2013-8-8,88,78,72,73,70,66,89,75,55,29.46,29.36,12,4,0,0.00
2013-8-9,91,80,75,75,72,70,94,78,52,29.40,29.13,13,4,0,0.00
2013-8-10,86,78,72,72,60,52,83,56,33,29.44,29.24,13,5,0,0.00
2013-8-11,84,74,63,63,54,45,72,51,30,29.57,29.38,9,3,0,0.00
2013-8-12,88,78,72,70,63,52,88,63,31,29.43,29.27,9,2,0,0.00
2013-8-13,82,75,70,72,67,61,94,77,51,29.32,29.05,12,2,0,0.00
2013-8-14,75,68,61,66,51,45,83,54,41,29.48,29.16,18,7,0,0.00
2013-8-15,81,70,61,52,48,41,68,49,26,29.58,29.44,16,4,0,0.00
2013-8-16,86,74,63,61,51,45,78,49,23,29.62,29.49,10,2,0,0.00
2013-8-17,86,74,64,61,54,48,83,51,29,29.68,29.58,12,3,0,0.00
2013-8-18,79,72,66,61,57,52,78,60,44,29.68,29.53,8,1,0,0.00
2013-8-19,84,76,68,64,60,57,78,60,42,29.56,29.40,8,1,0,0.00
2013-8-20,91,79,68,66,62,55,83,59,31,29.52,29.42,13,3,0,0.00
2013-8-21,95,82,72,70,62,54,88,55,26,29.58,29.40,9,2,0,0.00
2013-8-22,81,78,75,72,69,64,83,74,61,29.45,29.26,9,1,0,0.00
2013-8-23,81,75,70,70,58,50,83,57,36,29.52,29.27,18,8,0,0.00
2013-8-24,84,72,61,59,51,48,68,49,30,29.78,29.52,17,5,0,0.00
2013-8-25,88,75,63,61,54,45,88,52,22,29.83,29.60,10,1,0,0.00
2013-8-26,84,77,70,70,60,54,83,56,45,29.64,29.33,8,2,0,0.00
2013-8-27,84,77,72,70,67,64,88,74,51,29.33,29.23,20,8,0,0.00
2013-8-28,81,77,73,72,69,66,89,78,61,29.31,29.21,9,2,0,0.00
2013-8-29,81,75,72,70,67,63,88,77,57,29.45,29.31,10,2,0,0.00
2013-8-30,90,80,70,70,65,61,83,62,38,29.45,29.22,7,1,0,0.00
2013-8-31,90,82,75,72,70,68,78,66,49,29.26,29.14,14,3,0,0.00
2013-9-1,90,81,73,75,72,70,89,73,52,29.26,29.15,13,2,0,0.00
2013-9-2,84,80,75,75,72,70,89,79,62,29.20,29.08,8,1,0,0.00
2013-9-3,84,76,70,72,63,52,94,67,39,29.30,29.10,15,4,0,0.00
2013-9-4,86,75,64,59,55,46,77,52,30,29.40,29.28,13,4,0,0.00
2013-9-5,79,72,63,59,51,39,68,49,29,29.61,29.33,17,5,0,0.00
2013-9-6,75,64,54,46,41,36,63,45,25,29.75,29.56,17,5,0,0.00
2013-9-7,86,72,59,54,46,41,68,43,20,29.63,29.33,9,1,0,0.00
2013-9-8,82,74,63,63,52,39,60,47,24,29.56,29.21,21,6,0,0.00
2013-9-9,79,66,54,59,46,39,68,49,26,29.78,29.56,16,3,0,0.00
2013-9-10,93,80,70,72,67,59,78,65,44,29.62,29.45,14,3,0,0.00
2013-9-11,100,87,79,73,71,70,78,61,37,29.54,29.34,16,2,0,0.00
2013-9-12,91,81,70,72,69,64,94,68,46,29.40,29.08,16,3,0,0.00
2013-9-13,81,70,59,68,59,48,88,70,42,29.35,29.06,16,6,0,0.00
2013-9-14,70,60,54,48,46,45,77,61,43,29.66,29.35,18,6,0,0.00
2013-9-15,75,62,52,54,45,37,82,58,25,29.75,29.55,10,3,0,0.00
2013-9-16,72,65,55,57,52,45,82,64,43,29.78,29.52,17,5,0,0.00
2013-9-17,66,56,46,45,38,34,72,54,37,30.01,29.78,16,7,0,0.00
2013-9-18,59,54,52,48,45,41,82,71,58,29.94,29.85,12,3,0,0.00
2013-9-19,82,68,55,57,48,41,77,53,23,29.76,29.56,7,1,0,0.00
2013-9-20,86,70,59,59,55,48,82,61,32,29.65,29.48,13,3,0,0.00
2013-9-21,79,69,61,68,62,57,94,79,57,29.55,29.19,29,8,0,0.00
2013-9-22,72,64,54,68,51,39,94,65,40,29.49,29.18,18,7,0,0.00
2013-9-23,68,58,50,45,41,37,71,55,37,29.65,29.49,16,6,0,0.00
2013-9-24,75,60,48,46,42,37,82,54,29,29.70,29.41,17,4,0,0.00
2013-9-25,73,63,54,55,45,37,82,55,33,29.57,29.41,15,5,0,0.00
2013-9-26,72,63,57,55,52,46,88,70,49,29.70,29.53,12,3,0,0.00
2013-9-27,68,61,54,54,51,48,88,71,56,29.85,29.70,12,4,0,0.00
2013-9-28,77,64,55,55,51,46,88,65,36,29.90,29.80,15,5,0,0.00
2013-9-29,75,64,55,57,54,48,94,71,49,29.83,29.64,10,2,0,0.00
2013-9-30,75,64,55,55,51,46,94,66,36,29.70,29.52,13,3,0,0.00
2013-10-1,75,71,64,59,57,54,68,62,53,29.57,29.47,4,1,0,0.00
2013-10-2,86,75,66,59,57,52,68,53,37,29.55,29.41,16,3,0,0.00
2013-10-3,82,72,63,61,55,46,88,57,32,29.67,29.55,9,2,0,0.00
2013-10-4,90,75,64,66,61,57,88,65,38,29.61,29.45,9,1,0,0.00
2013-10-5,81,69,64,64,62,61,94,79,54,29.64,29.54,9,2,0,0.00
2013-10-6,70,66,64,66,65,63,100,94,78,29.65,29.58,13,4,0,0.00
2013-10-7,75,70,61,70,64,48,94,83,63,29.58,29.27,26,9,0,0.00
2013-10-8,66,59,54,48,43,39,72,56,37,29.91,29.53,16,6,0,0.00
2013-10-9,63,57,50,50,42,36,77,59,45,30.01,29.89,13,3,0,0.00
2013-10-10,64,58,52,55,50,43,82,74,67,29.90,29.67,14,5,0,0.00
2013-10-11,70,64,59,59,56,52,82,75,64,29.67,29.58,10,4,0,0.00
2013-10-12,73,64,59,57,46,34,77,53,25,29.86,29.66,21,6,0,0.00
2013-10-13,63,58,54,52,49,46,82,72,59,29.97,29.85,15,4,0,0.00
2013-10-14,70,59,52,52,48,43,88,68,43,29.96,29.80,10,2,0,0.00
2013-10-15,75,62,54,54,51,45,94,71,38,29.87,29.67,12,2,0,0.00
2013-10-16,68,61,54,59,53,48,88,77,60,29.72,29.50,8,2,0,0.00
2013-10-17,79,69,63,63,60,55,88,75,44,29.50,29.26,12,2,0,0.00
2013-10-18,70,64,57,63,46,37,83,55,33,29.57,29.24,15,6,0,0.00
2013-10-19,66,59,50,55,44,39,77,59,37,29.61,29.33,14,3,0,0.00
2013-10-20,64,57,50,54,39,30,77,53,30,29.68,29.33,16,5,0,0.00
2013-10-21,72,60,48,46,38,30,66,45,22,29.78,29.58,17,3,0,0.00
2013-10-22,70,61,52,50,47,41,72,60,43,29.59,29.34,13,2,0,0.00
2013-10-23,55,49,45,43,36,30,76,61,41,29.47,29.25,12,2,0,0.00
2013-10-24,55,47,41,36,30,23,76,54,30,29.69,29.42,17,6,0,0.00
2013-10-25,54,46,39,34,30,27,70,53,35,29.92,29.69,20,6,0,0.00
2013-10-26,57,50,41,36,30,25,76,50,29,29.92,29.59,16,3,0,0.00
2013-10-27,57,52,48,32,30,27,54,43,33,29.82,29.54,15,4,0,0.00
2013-10-28,64,53,43,36,32,28,66,47,28,30.02,29.82,8,2,0,0.00
2013-10-29,54,47,41,32,29,25,61,51,40,30.13,30.02,16,4,0,0.00
2013-10-30,61,51,43,48,41,30,88,69,57,30.07,29.87,7,1,0,0.00
2013-10-31,68,59,48,61,54,46,94,83,68,29.94,29.49,15,4,0,0.00
2013-11-1,73,68,63,63,57,50,88,68,46,29.49,29.21,23,6,0,0.00
2013-11-2,73,61,54,57,45,36,94,58,31,29.47,29.26,14,2,0,0.00
2013-11-3,55,45,36,45,31,14,82,60,41,30.19,29.47,20,11,0,0.00
2013-11-4,48,39,32,25,16,10,56,41,25,30.40,30.19,21,5,0,0.00
2013-11-5,57,47,37,41,34,21,75,60,47,30.41,30.21,13,3,0,0.00
2013-11-6,63,55,45,54,45,41,87,70,48,30.20,29.77,18,4,0,0.00
2013-11-7,64,56,43,59,48,28,88,76,50,29.77,29.44,17,4,0,0.00
2013-11-8,48,44,39,32,26,19,70,51,34,29.95,29.66,23,7,0,0.00
2013-11-9,52,45,37,34,26,21,65,48,30,30.03,29.72,12,4,0,0.00
2013-11-10,61,50,45,39,32,27,71,52,29,29.77,29.49,26,6,0,0.00
2013-11-11,55,49,43,32,26,23,49,42,31,29.93,29.68,24,6,0,0.00
2013-11-12,52,38,30,36,23,12,93,56,38,30.07,29.65,22,10,0,0.00
2013-11-13,39,33,28,19,13,7,64,46,26,30.14,30.04,20,8,0,0.00
2013-11-14,54,44,34,21,16,12,56,35,19,30.06,29.87,10,3,0,0.00
2013-11-15,61,51,41,28,23,18,57,35,20,30.00,29.87,10,1,0,0.00
2013-11-16,64,53,45,48,39,23,94,62,35,30.06,29.97,12,2,0,0.00
2013-11-17,61,56,48,61,53,46,100,93,82,30.02,29.52,9,2,0,0.00
2013-11-18,66,60,50,61,39,23,100,51,24,29.52,29.30,20,6,0,0.00
2013-11-19,50,43,36,28,24,19,60,48,37,30.11,29.50,31,13,0,0.00
2013-11-20,43,36,30,23,16,9,65,47,25,30.39,30.11,25,8,0,0.00
2013-11-21,52,42,32,39,28,12,71,56,44,30.40,30.12,8,2,0,0.00
2013-11-22,59,54,50,50,46,39,94,77,62,30.12,29.63,7,1,0,0.00
2013-11-23,54,41,28,48,22,3,82,49,27,29.79,29.62,26,12,0,0.00
2013-11-24,28,25,21,10,3,-6,51,40,23,30.19,29.79,30,14,0,0.00
2013-11-25,39,29,21,14,10,7,63,46,30,30.27,30.11,18,6,0,0.00
2013-11-26,46,38,34,46,25,14,100,63,36,30.11,29.58,16,5,0,0.00
2013-11-27,63,47,34,61,44,18,100,87,52,29.58,29.10,34,12,0,0.00
2013-11-28,34,31,28,18,11,7,60,44,32,30.26,29.50,25,10,0,0.00
2013-11-29,39,33,28,19,16,10,60,51,41,30.54,30.26,14,4,0,0.00
2013-11-30,37,30,21,27,16,10,70,57,35,30.59,30.17,13,4,0,0.00
2013-12-1,48,41,36,36,31,27,81,67,46,30.17,29.80,10,3,0,0.00
2013-12-2,46,41,37,37,36,34,93,81,71,29.80,29.66,9,1,0,0.00
2013-12-3,54,42,36,37,35,34,93,79,51,29.79,29.62,14,3,0,0.00
2013-12-4,52,44,36,41,36,32,93,75,54,29.90,29.79,9,1,0,0.00
2013-12-5,59,53,46,55,51,41,100,93,81,29.89,29.68,9,2,0,0.00
2013-12-6,59,47,36,57,45,32,100,94,87,29.93,29.61,20,7,0,0.00
2013-12-7,41,36,30,36,26,16,100,70,48,30.30,29.87,17,7,0,0.00
2013-12-8,32,30,27,28,18,14,93,62,51,30.39,30.19,17,4,0,0.00
2013-12-9,39,34,28,37,33,28,100,96,93,30.19,29.74,14,4,0,0.00
2013-12-10,36,33,28,34,29,18,100,87,64,29.93,29.65,13,4,0,0.00
2013-12-11,34,29,25,18,15,12,64,56,41,30.11,29.93,13,6,0,0.00
2013-12-12,28,24,21,16,6,1,64,48,36,30.15,29.99,21,8,0,0.00
2013-12-13,36,28,21,18,10,3,55,47,38,30.12,29.88,15,6,0,0.00
2013-12-14,32,23,18,32,19,14,100,85,60,30.33,29.65,14,6,0,0.00
2013-12-15,37,33,28,36,28,19,100,84,60,29.65,29.32,16,7,0,0.00
2013-12-16,34,28,25,23,10,5,69,48,37,30.07,29.63,26,7,0,0.00
2013-12-17,28,24,21,27,19,9,100,83,54,30.07,29.76,16,5,0,0.00
2013-12-18,37,29,21,23,19,18,93,68,48,29.97,29.77,17,6,0,0.00
2013-12-19,46,38,28,28,23,19,69,56,43,30.00,29.80,8,2,0,0.00
2013-12-20,52,47,39,41,31,25,75,55,47,29.90,29.74,12,2,0,0.00
2013-12-21,64,58,50,54,47,41,82,68,52,29.76,29.64,9,2,0,0.00
2013-12-22,72,66,57,63,57,54,88,73,60,29.69,29.54,25,6,0,0.00
2013-12-23,64,56,41,59,52,30,100,87,65,29.88,29.62,20,4,0,0.00
2013-12-24,41,34,25,30,21,5,86,60,43,30.14,29.83,17,9,0,0.00
2013-12-25,28,23,18,14,7,3,63,51,37,30.34,30.14,20,7,0,0.00
2013-12-26,36,32,27,27,22,14,80,68,56,30.23,29.92,13,3,0,0.00
2013-12-27,41,35,30,25,20,16,70,55,39,30.14,30.01,14,4,0,0.00
2013-12-28,55,44,36,27,23,19,65,45,29,30.06,29.80,12,3,0,0.00
2013-12-29,48,44,39,43,33,25,100,71,43,29.83,29.20,26,4,0,0.00
2013-12-30,43,35,21,39,24,7,93,65,44,30.02,29.32,24,7,0,0.00
2013-12-31,32,25,19,23,12,7,75,57,43,30.09,29.83,15,4,0,0.00
2014-1-1,34,28,23,18,13,5,60,53,46,30.22,30.06,12,3,0,0.00
2014-1-2,30,24,14,23,19,12,93,81,55,30.06,29.55,15,8,0,0.00